Torna al catalogo

STARLINK-3977

AttivoComunicazioniVLEO
NORAD 52640·PAYLOAD·🇺🇸 United States

Lanciato May 14, 2022 da Cape Canaveral Space Force Station

Loading…

Prossimi Passaggi (prossime 24 ore)

TLE

AggiornatoSource: CelesTrak SupGP

Epoca: Sep 14, 2026, 20:58 UTC

1 52640C 22052AU  26257.87409722 -.00018784  00000+0 -53767-3 0  2576
2 52640  53.1564 118.4451 0001246  86.0057 105.0217 15.35392972    19

Traccia STARLINK-3977 in tempo reale con AllMySat

Download on the App Store